TimeCDT,TemperatureF,Dew PointF,Humidity,Sea Level PressureIn,VisibilityMPH,Wind Direction,Wind SpeedMPH,Gust SpeedMPH,PrecipitationIn,Events,Conditions,WindDirDegrees,DateUTC
12:55 AM,68.4,63.1,83,29.84,10.0,North,8.1,-,N/A,,Clear,350,2012-10-27 05:55:00
1:55 AM,68.2,63.0,83,29.83,10.0,North,6.9,-,N/A,,Clear,360,2012-10-27 06:55:00
2:55 AM,67.1,63.0,87,29.81,10.0,North,5.8,-,N/A,,Clear,360,2012-10-27 07:55:00
3:55 AM,66.0,62.8,89,29.81,10.0,North,6.9,-,N/A,,Clear,350,2012-10-27 08:55:00
4:55 AM,65.5,62.8,91,29.81,10.0,North,9.2,-,N/A,,Clear,350,2012-10-27 09:55:00
5:55 AM,64.6,63.3,96,29.83,10.0,North,9.2,-,N/A,,Clear,350,2012-10-27 10:55:00
6:55 AM,63.7,63.5,99,29.84,10.0,North,11.5,-,N/A,,Clear,350,2012-10-27 11:55:00
7:24 AM,64.4,64.4,100,29.85,10.0,NNW,11.5,-,N/A,,Mostly Cloudy,340,2012-10-27 12:24:00
7:55 AM,63.9,63.9,100,29.86,10.0,North,9.2,-,N/A,,Mostly Cloudy,350,2012-10-27 12:55:00
8:02 AM,64.4,64.4,100,29.86,10.0,North,9.2,-,N/A,,Mostly Cloudy,350,2012-10-27 13:02:00
8:05 AM,64.4,64.4,100,29.86,10.0,North,10.4,-,N/A,,Scattered Clouds,360,2012-10-27 13:05:00
8:55 AM,67.1,65.1,93,29.86,10.0,North,11.5,-,N/A,,Clear,360,2012-10-27 13:55:00
9:55 AM,69.8,65.3,86,29.86,10.0,NNE,9.2,17.3,N/A,,Clear,20,2012-10-27 14:55:00
10:55 AM,71.2,65.3,81,29.85,10.0,North,11.5,-,N/A,,Clear,350,2012-10-27 15:55:00
11:55 AM,73.9,66.4,77,29.83,10.0,North,8.1,-,N/A,,Clear,360,2012-10-27 16:55:00
12:55 PM,75.0,66.2,74,29.80,10.0,NW,10.4,-,N/A,,Clear,320,2012-10-27 17:55:00
1:55 PM,76.6,67.3,73,29.77,10.0,NW,12.7,-,N/A,,Clear,310,2012-10-27 18:55:00
2:55 PM,77.9,67.5,70,29.77,10.0,NNW,9.2,-,N/A,,Clear,340,2012-10-27 19:55:00
3:55 PM,76.3,66.7,72,29.75,10.0,NW,12.7,-,N/A,,Clear,320,2012-10-27 20:55:00
4:55 PM,72.5,64.9,77,29.76,10.0,NW,13.8,-,N/A,,Clear,310,2012-10-27 21:55:00
5:55 PM,68.0,61.9,81,29.79,10.0,NNW,11.5,-,N/A,,Clear,330,2012-10-27 22:55:00
6:55 PM,63.5,59.7,87,29.82,10.0,NW,11.5,-,N/A,,Clear,320,2012-10-27 23:55:00
7:55 PM,58.3,56.3,93,29.84,10.0,NNW,11.5,17.3,N/A,,Scattered Clouds,340,2012-10-28 00:55:00
7:59 PM,59.0,55.4,88,29.84,10.0,NNW,10.4,17.3,N/A,,Mostly Cloudy,340,2012-10-28 00:59:00
8:06 PM,59.0,55.4,88,29.84,10.0,North,12.7,19.6,N/A,,Mostly Cloudy,350,2012-10-28 01:06:00
8:55 PM,57.6,55.6,93,29.85,10.0,North,16.1,19.6,N/A,,Overcast,360,2012-10-28 01:55:00
9:55 PM,56.3,54.5,94,29.86,10.0,North,13.8,24.2,N/A,,Overcast,350,2012-10-28 02:55:00
10:55 PM,55.2,53.8,95,29.86,10.0,NNW,11.5,20.7,N/A,,Overcast,340,2012-10-28 03:55:00
11:55 PM,55.2,53.4,94,29.86,10.0,NNW,15.0,19.6,N/A,,Overcast,330,2012-10-28 04:55:00